Weather History for Yakima, WA

Change the Weather History Date:

Thursday, November 1, 2012

  Actual Average Record
Temperature  
Mean Temperature 50 °F 43 °F  
Max Temperature 61 °F 56 °F 68 °F (1949)
Min Temperature 38 °F 30 °F 6 °F (2002)
Degree Days  
Heating Degree Days 15 22  
Month to date heating degree days 15 22  
Since 1 July heating degree days 552 726  
Cooling Degree Days 0 0  
Month to date cooling degree days 0 0  
Year to date cooling degree days 667 472  
Growing Degree Days 2 (Base 50)    
Moisture  
Dew Point 42 °F    
Average Humidity 70    
Maximum Humidity 89    
Minimum Humidity 51    
Precipitation  
Precipitation T in 0.03 in 0.36 in (2005)
Month to date precipitation T 0.03  
Year to date precipitation 6.53 5.70  
Snow  
Snow 0.00 in 0.00 in 0.30 in (1984)
Month to date snowfall 0.0 0.0  
Year to date snowfall 21.5 8.7  
Since 1 July snowfall 0.0 0.1  
Snow Depth 0.00 in    
Sea Level Pressure  
Sea Level Pressure 29.88 in    
Wind  
Wind Speed 5 mph (SW)    
Max Wind Speed 21 mph    
Max Gust Speed 26 mph    
Visibility 10 miles    
Events      
T = Trace of Precipitation, MM = Missing Value Source: NWS Daily Summary

Daily Weather History Graph

Daily Weather History Graph

Search for Another Location

Airport:

Trip Planner

Search our weather history database for the weather conditions in past years. The results will help you decide how hot, cold, wet, or windy it might be!

Date:

Astronomy

Nov. 01, 2012 Rise Set
Actual Time 7:44 AM PDT 5:46 PM PDT
Civil Twilight 7:13 AM PDT 6:17 PM PDT
Nautical Twilight 6:37 AM PDT 6:53 PM PDT
Astronomical Twilight 6:02 AM PDT 7:28 PM PDT
Moon 7:39 PM PDT (11/1) 10:29 AM PDT (11/1)
Length of Visible Light 11h 04m
Length of Day
10h 01m
Waning Gibbous, 92% of the Moon is Illuminated
Nov 1
Waning Gibbous
Nov 6
Last Quarter
Nov 13
New
Nov 20
First Quarter
Nov 28
Full

Hourly Weather History & Observations

Time (PDT) Temp. Windchill Dew Point Humidity Pressure Visibility Wind Dir Wind Speed Gust Speed Precip Events Conditions
12:53 AM 46.9 °F - 43.0 °F 86% 29.78 in 10.0 mi Calm Calm - N/A   Scattered Clouds
1:53 AM 46.9 °F - 43.0 °F 86% 29.77 in 10.0 mi Calm Calm - N/A   Mostly Cloudy
2:53 AM 46.9 °F - 43.0 °F 86% 29.79 in 10.0 mi West 3.5 mph - N/A   Overcast
3:53 AM 46.9 °F - 43.0 °F 86% 29.78 in 10.0 mi WNW 4.6 mph - 0.00 in   Mostly Cloudy
4:53 AM 46.0 °F 44.8 °F 42.1 °F 86% 29.79 in 10.0 mi South 3.5 mph - N/A   Clear
5:53 AM 48.9 °F - 43.0 °F 80% 29.80 in 10.0 mi ENE 4.6 mph - N/A   Clear
6:53 AM 50.0 °F - 42.1 °F 74% 29.81 in 10.0 mi Calm Calm - N/A   Mostly Cloudy
7:53 AM 48.0 °F - 42.1 °F 80% 29.81 in 10.0 mi NNW 3.5 mph - N/A   Clear
8:53 AM 48.9 °F - 41.0 °F 74% 29.82 in 10.0 mi Calm Calm - N/A   Partly Cloudy
9:53 AM 51.1 °F - 43.0 °F 74% 29.84 in 10.0 mi Calm Calm - N/A   Mostly Cloudy
10:53 AM 55.0 °F - 43.0 °F 64% 29.85 in 10.0 mi SSE 6.9 mph - N/A   Overcast
11:53 AM 59.0 °F - 41.0 °F 51% 29.86 in 10.0 mi South 12.7 mph 19.6 mph N/A   Mostly Cloudy
12:53 PM 57.9 °F - 42.1 °F 56% 29.86 in 10.0 mi South 9.2 mph - N/A   Mostly Cloudy
1:53 PM 59.0 °F - 42.1 °F 53% 29.87 in 10.0 mi South 9.2 mph - N/A   Mostly Cloudy
2:53 PM 59.0 °F - 42.1 °F 53% 29.87 in 10.0 mi South 8.1 mph - N/A   Partly Cloudy
3:53 PM 57.9 °F - 43.0 °F 58% 29.88 in 10.0 mi SSW 5.8 mph - N/A   Mostly Cloudy
4:53 PM 59.0 °F - 43.0 °F 55% 29.90 in 10.0 mi North 3.5 mph - N/A   Mostly Cloudy
5:53 PM 55.0 °F - 44.1 °F 67% 29.91 in 10.0 mi East 5.8 mph - N/A   Mostly Cloudy
6:53 PM 53.1 °F - 44.1 °F 71% 29.94 in 10.0 mi ENE 4.6 mph - N/A   Mostly Cloudy
7:53 PM 48.0 °F - 42.1 °F 80% 29.98 in 10.0 mi Calm Calm - N/A   Overcast
8:53 PM 46.0 °F 44.8 °F 41.0 °F 83% 29.99 in 10.0 mi West 3.5 mph - N/A   Partly Cloudy
9:53 PM 45.0 °F 41.2 °F 41.0 °F 86% 30.01 in 10.0 mi NW 6.9 mph - N/A   Partly Cloudy
10:53 PM 42.1 °F 39.2 °F 39.0 °F 89% 30.03 in 10.0 mi West 4.6 mph - N/A   Clear
11:53 PM 41.0 °F 38.0 °F 37.0 °F 86% 30.04 in 10.0 mi West 4.6 mph - N/A   Clear